Adana, Turkey

2:09 PM +03 on January 22, 2018 (GMT +0300)
Adana

Weather History for LTAF - December, 2012

Change the Weather History Date:

Saturday, December 1, 2012

  Actual Average Record
Temperature  
Mean Temperature 60 °F -  
Max Temperature 71 °F 60 °F 75 °F (2010)
Min Temperature 48 °F 41 °F 35 °F (2011)
Degree Days  
Heating Degree Days 6    
Growing Degree Days 10 (Base 50)    
Moisture  
Dew Point 45 °F    
Average Humidity 64    
Maximum Humidity 82    
Minimum Humidity 33    
Precipitation  
Precipitation 0.00 in 0.18 in - ()
Sea Level Pressure  
Sea Level Pressure 30.14 in    
Wind  
Wind Speed 3 mph ()    
Max Wind Speed 7 mph    
Max Gust Speed -    
Visibility 3.8 miles    
Events      
Averages and records for this station are not official NWS values.
T = Trace of Precipitation, MM = Missing Value Source: Averaged Metar Reports

Daily Weather History Graph

Daily Weather History Graph

Search for Another Location

Airport or City:

Trip Planner

Search our weather history database for the weather conditions in past years. The results will help you decide how hot, cold, wet, or windy it might be!

Date:

Astronomy

Dec. 01, 2012 Rise Set
Actual Time 6:33 AM EET 4:22 PM EET
Civil Twilight 6:04 AM EET 4:50 PM EET
Nautical Twilight 5:32 AM EET 5:22 PM EET
Astronomical Twilight 5:01 AM EET 5:54 PM EET
Moon 6:51 PM EET (12/1) 8:33 AM EET (12/1)
Length of Visible Light 10h 45m
Length of Day
9h 48m
Waning Gibbous, 93% of the Moon is Illuminated
Dec 1
Waning Gibbous
Dec 6
Last Quarter
Dec 13
New
Dec 20
First Quarter
Dec 28
Full

Hourly Weather History & Observations

Time (EET) Temp. Dew Point Humidity Pressure Visibility Wind Dir Wind Speed Gust Speed Precip Events Conditions
12:20 AM 55.4 °F 46.4 °F 72% 30.18 in 3.1 mi North 2.3 mph - N/A   Mist
12:50 AM 55.4 °F 44.6 °F 67% 30.18 in 3.1 mi North 2.3 mph - N/A   Mist
1:20 AM 53.6 °F 44.6 °F 72% 30.18 in 3.1 mi North 3.5 mph - N/A   Mist
1:50 AM 51.8 °F 44.6 °F 76% 30.18 in 3.1 mi North 3.5 mph - N/A   Mist
2:20 AM 51.8 °F 44.6 °F 76% 30.15 in 3.1 mi NNW 3.5 mph - N/A   Mist
2:50 AM 53.6 °F 44.6 °F 72% 30.15 in 3.1 mi NNW 4.6 mph - N/A   Mist
3:20 AM 50.0 °F 44.6 °F 82% 30.15 in 3.1 mi North 3.5 mph - N/A   Mist
3:50 AM 53.6 °F 46.4 °F 77% 30.15 in 3.1 mi North 4.6 mph - N/A   Mist
4:20 AM 53.6 °F 46.4 °F 77% 30.15 in 3.1 mi North 2.3 mph - N/A   Mist
4:50 AM 51.8 °F 44.6 °F 76% 30.15 in 3.1 mi North 1.2 mph - N/A   Mist
5:20 AM 51.8 °F 44.6 °F 76% 30.15 in 3.1 mi North 2.3 mph - N/A   Mist
5:50 AM 50.0 °F 44.6 °F 82% 30.15 in 3.1 mi NE 3.5 mph - N/A   Mist
6:20 AM 50.0 °F 44.6 °F 82% 30.15 in 3.1 mi North 2.3 mph - N/A   Mist
6:50 AM 48.2 °F 42.8 °F 82% 30.18 in 3.1 mi Calm Calm - N/A   Mist
7:20 AM 50.0 °F 44.6 °F 82% 30.18 in 3.1 mi Variable 1.2 mph - N/A   Mist
7:50 AM 53.6 °F 46.4 °F 77% 30.18 in 3.1 mi North 3.5 mph - N/A   Mist
8:20 AM 57.2 °F 48.2 °F 72% 30.18 in 3.1 mi North 3.5 mph - N/A   Mist
8:50 AM 60.8 °F 48.2 °F 63% 30.18 in - NNE 5.8 mph - N/A   Clear
9:20 AM 64.4 °F 48.2 °F 56% 30.18 in - NNE 5.8 mph - N/A   Clear
9:50 AM 66.2 °F 46.4 °F 49% 30.18 in - North 5.8 mph - N/A   Clear
10:20 AM 68.0 °F 46.4 °F 46% 30.18 in - NNE 5.8 mph - N/A   Clear
10:50 AM 68.0 °F 46.4 °F 46% 30.15 in - North 5.8 mph - N/A   Clear
11:20 AM 69.8 °F 42.8 °F 38% 30.15 in - NNE 6.9 mph - N/A   Clear
11:50 AM 71.6 °F 44.6 °F 38% 30.12 in - North 4.6 mph - N/A   Clear
12:20 PM 71.6 °F 44.6 °F 38% 30.12 in - NNE 4.6 mph - N/A   Clear
12:50 PM 71.6 °F 42.8 °F 35% 30.12 in - NE 5.8 mph - N/A   Clear
1:20 PM 69.8 °F 44.6 °F 40% 30.12 in - NNE 2.3 mph - N/A   Clear
1:50 PM 71.6 °F 41.0 °F 33% 30.09 in 6.2 mi NNE 4.6 mph - N/A   Scattered Clouds
2:20 PM 69.8 °F 41.0 °F 35% 30.09 in 6.2 mi NE 2.3 mph - N/A   Mostly Cloudy
2:50 PM 71.6 °F 42.8 °F 35% 30.09 in 6.2 mi Calm Calm - N/A   Mostly Cloudy
3:20 PM 69.8 °F 44.6 °F 40% 30.09 in 6.2 mi SSE 4.6 mph - N/A   Mostly Cloudy
3:50 PM 68.0 °F 46.4 °F 46% 30.09 in 6.2 mi SSE 3.5 mph - N/A   Scattered Clouds
4:20 PM 64.4 °F 46.4 °F 52% 30.12 in 6.2 mi SW 3.5 mph - N/A   Scattered Clouds
4:50 PM 60.8 °F 46.4 °F 59% 30.09 in 6.2 mi Calm Calm - N/A   Partly Cloudy
5:20 PM 59.0 °F 46.4 °F 63% 30.09 in 6.2 mi Variable 1.2 mph - N/A   Partly Cloudy
5:50 PM 59.0 °F 46.4 °F 63% 30.09 in 3.1 mi Calm Calm - N/A   Haze
6:20 PM 55.4 °F 46.4 °F 72% 30.12 in 3.1 mi Calm Calm - N/A   Partly Cloudy
6:50 PM 55.4 °F 46.4 °F 72% 30.12 in 3.1 mi SSW 2.3 mph - N/A   Partly Cloudy
7:20 PM 55.4 °F 46.4 °F 72% 30.12 in 3.1 mi Variable 2.3 mph - N/A   Partly Cloudy
7:50 PM 53.6 °F 46.4 °F 77% 30.12 in 3.1 mi Variable 2.3 mph - N/A   Partly Cloudy
8:20 PM 53.6 °F 46.4 °F 77% 30.12 in 3.1 mi Variable 2.3 mph - N/A   Partly Cloudy
8:50 PM 53.6 °F 46.4 °F 77% 30.12 in 3.1 mi NNE 4.6 mph - N/A   Partly Cloudy
9:20 PM 53.6 °F 48.2 °F 82% 30.12 in 3.1 mi NNE 4.6 mph - N/A   Partly Cloudy
9:50 PM 53.6 °F 48.2 °F 82% 30.12 in 3.1 mi North 3.5 mph - N/A   Partly Cloudy
10:20 PM 55.4 °F 46.4 °F 72% 30.12 in 3.1 mi North 3.5 mph - N/A   Partly Cloudy
10:50 PM 55.4 °F 48.2 °F 77% 30.12 in 3.1 mi North 3.5 mph - N/A   Partly Cloudy
11:20 PM 51.8 °F 44.6 °F 76% 30.12 in 3.1 mi NNE 4.6 mph - N/A   Partly Cloudy
11:50 PM 50.0 °F 44.6 °F 82% 30.12 in 3.1 mi NE 6.9 mph - N/A   Partly Cloudy